Year,Month,Day,Hour,Minute,Value (Times are PST for temperature in C)
2008,02,24,08,37,6.30
2008,02,24,08,38,6.30
2008,02,24,08,39,6.30
2008,02,24,08,40,6.20
2008,02,24,08,41,6.20
2008,02,24,08,42,6.20
2008,02,24,08,43,6.20
2008,02,24,08,44,6.20
2008,02,24,08,45,6.20
2008,02,24,08,46,6.20
2008,02,24,08,47,6.20
2008,02,24,08,48,6.20
2008,02,24,08,49,6.20
2008,02,24,08,50,6.20
2008,02,24,08,51,6.20
2008,02,24,08,52,6.20
2008,02,24,08,53,6.20
2008,02,24,08,54,6.20
2008,02,24,08,55,6.20
2008,02,24,08,56,6.20
2008,02,24,08,57,6.20
2008,02,24,08,58,6.30
2008,02,24,08,59,6.30
2008,02,24,09,00,6.30
2008,02,24,09,01,6.30
2008,02,24,09,02,6.30
2008,02,24,09,03,6.30
2008,02,24,09,04,6.30
2008,02,24,09,05,6.30
2008,02,24,09,06,6.30
2008,02,24,09,07,6.30
2008,02,24,09,08,6.30
2008,02,24,09,09,6.30
2008,02,24,09,10,6.30
2008,02,24,09,11,6.30
2008,02,24,09,12,6.30
2008,02,24,09,13,6.30
2008,02,24,09,14,6.30
2008,02,24,09,15,6.30
2008,02,24,09,16,6.30
2008,02,24,09,17,6.30
2008,02,24,09,18,6.30
2008,02,24,09,19,6.30
2008,02,24,09,20,6.30
2008,02,24,09,21,6.30
2008,02,24,09,22,6.30
2008,02,24,09,23,6.30
2008,02,24,09,24,6.30
2008,02,24,09,25,6.30
2008,02,24,09,26,6.30
2008,02,24,09,27,6.40
2008,02,24,09,28,6.40
2008,02,24,09,29,6.40
2008,02,24,09,30,6.40
2008,02,24,09,31,6.40
2008,02,24,09,32,6.40
2008,02,24,09,33,6.40
2008,02,24,09,34,6.40
2008,02,24,09,35,6.40
2008,02,24,09,36,6.40
2008,02,24,09,37,6.40
2008,02,24,09,38,6.40
2008,02,24,09,39,6.40
2008,02,24,09,40,6.40
2008,02,24,09,41,6.40
2008,02,24,09,42,6.40
2008,02,24,09,43,6.40
2008,02,24,09,44,6.40
2008,02,24,09,45,6.40
2008,02,24,09,46,6.40
2008,02,24,09,47,6.40
2008,02,24,09,48,6.40
2008,02,24,09,49,6.40
2008,02,24,09,50,6.40
2008,02,24,09,51,6.40
2008,02,24,09,52,6.40
2008,02,24,09,53,6.40
2008,02,24,09,54,6.40
2008,02,24,09,55,6.40
2008,02,24,09,56,6.40
2008,02,24,09,57,6.70
2008,02,24,09,58,6.70
2008,02,24,09,59,6.70
2008,02,24,10,00,6.70
2008,02,24,10,01,6.70
2008,02,24,10,02,6.70
2008,02,24,10,03,6.70
2008,02,24,10,04,6.70
2008,02,24,10,05,6.70
2008,02,24,10,06,6.70
2008,02,24,10,07,6.70
2008,02,24,10,08,6.70
2008,02,24,10,09,6.70
2008,02,24,10,10,6.70
2008,02,24,10,11,6.70
2008,02,24,10,12,6.70
2008,02,24,10,13,6.70
2008,02,24,10,14,6.70
2008,02,24,10,15,6.70
2008,02,24,10,16,6.70
2008,02,24,10,17,6.70
2008,02,24,10,18,6.70
2008,02,24,10,19,6.70
2008,02,24,10,20,6.70
2008,02,24,10,21,6.70
2008,02,24,10,22,6.70
2008,02,24,10,23,6.70
2008,02,24,10,24,6.70
2008,02,24,10,25,6.70
2008,02,24,10,26,6.90
2008,02,24,10,27,6.90
2008,02,24,10,28,6.90
2008,02,24,10,29,6.90
2008,02,24,10,30,6.90
2008,02,24,10,31,6.90
2008,02,24,10,32,6.90
2008,02,24,10,33,6.90
2008,02,24,10,34,6.90
2008,02,24,10,35,7.10
2008,02,24,10,36,7.10
2008,02,24,10,37,7.10
2008,02,24,10,38,7.10
2008,02,24,10,39,7.10
2008,02,24,10,40,7.10
2008,02,24,10,41,7.10
2008,02,24,10,42,7.10
2008,02,24,10,43,7.10
2008,02,24,10,44,7.10
2008,02,24,10,45,7.10
2008,02,24,10,46,7.10
2008,02,24,10,47,7.10
2008,02,24,10,48,7.10
2008,02,24,10,49,7.10
2008,02,24,10,50,7.10
2008,02,24,10,51,7.10
2008,02,24,10,52,7.10
2008,02,24,10,53,7.10
2008,02,24,10,54,7.10
2008,02,24,10,55,7.20
2008,02,24,10,56,7.20
2008,02,24,10,57,7.20
2008,02,24,10,58,7.20
2008,02,24,10,59,7.20
2008,02,24,11,00,7.20
2008,02,24,11,01,7.20
2008,02,24,11,02,7.20
2008,02,24,11,03,7.20
2008,02,24,11,04,7.30
2008,02,24,11,05,7.30
2008,02,24,11,06,7.30
2008,02,24,11,07,7.30
2008,02,24,11,08,7.30
2008,02,24,11,09,7.30
2008,02,24,11,10,7.30
2008,02,24,11,11,7.30
2008,02,24,11,12,7.30
2008,02,24,11,13,7.30
2008,02,24,11,14,7.30
2008,02,24,11,15,7.30
2008,02,24,11,16,7.30
2008,02,24,11,17,7.30
2008,02,24,11,18,7.30
2008,02,24,11,19,7.30
2008,02,24,11,20,7.30
2008,02,24,11,21,7.30
2008,02,24,11,22,7.30
2008,02,24,11,23,7.30
2008,02,24,11,24,7.40
2008,02,24,11,25,7.40
2008,02,24,11,26,7.40
2008,02,24,11,27,7.40
2008,02,24,11,28,7.40
2008,02,24,11,29,7.40
2008,02,24,11,30,7.40
2008,02,24,11,31,7.40
2008,02,24,11,32,7.40
2008,02,24,11,34,7.60
2008,02,24,11,35,7.60
2008,02,24,11,36,7.60
2008,02,24,11,37,7.60
2008,02,24,11,38,7.60
2008,02,24,11,39,7.60
2008,02,24,11,40,7.60
2008,02,24,11,41,7.60
2008,02,24,11,42,7.60
2008,02,24,11,43,7.60
2008,02,24,11,44,7.60
2008,02,24,11,45,7.60
2008,02,24,11,46,7.60
2008,02,24,11,47,7.60
2008,02,24,11,48,7.60
2008,02,24,11,49,7.60
2008,02,24,11,50,7.60
2008,02,24,11,51,7.60
2008,02,24,11,52,7.60
2008,02,24,11,53,7.60
2008,02,24,11,54,7.60
2008,02,24,11,55,7.60
2008,02,24,11,56,7.60
2008,02,24,11,57,7.60
2008,02,24,11,58,7.60
2008,02,24,11,59,7.70
2008,02,24,12,00,7.70
2008,02,24,12,01,7.70
2008,02,24,12,02,7.70
2008,02,24,12,03,7.70
2008,02,24,12,04,7.70
2008,02,24,12,05,7.70
2008,02,24,12,06,7.70
2008,02,24,12,07,7.70
2008,02,24,12,08,7.60
2008,02,24,12,09,7.60
2008,02,24,12,10,7.60
2008,02,24,12,11,7.60
2008,02,24,12,12,7.60
2008,02,24,12,13,7.60
2008,02,24,12,14,7.60
2008,02,24,12,15,7.60
2008,02,24,12,16,7.60
2008,02,24,12,17,7.60
2008,02,24,12,18,7.60
2008,02,24,12,19,7.60
2008,02,24,12,20,7.60
2008,02,24,12,21,7.60
2008,02,24,12,22,7.60
2008,02,24,12,23,7.60
2008,02,24,12,24,7.60
2008,02,24,12,25,7.60
2008,02,24,12,26,7.60
2008,02,24,12,27,7.60
2008,02,24,12,28,7.60
2008,02,24,12,29,7.90
2008,02,24,12,30,7.90
2008,02,24,12,31,7.90
2008,02,24,12,32,7.90
2008,02,24,12,33,7.90
2008,02,24,12,34,7.90
2008,02,24,12,35,7.90
2008,02,24,12,36,7.90
2008,02,24,12,37,7.90
2008,02,24,12,38,7.90
2008,02,24,12,39,7.90
2008,02,24,12,40,7.90
2008,02,24,12,41,7.90
2008,02,24,12,42,7.90
2008,02,24,12,43,7.90
2008,02,24,12,44,7.90
2008,02,24,12,45,7.90
2008,02,24,12,46,7.90
2008,02,24,12,47,7.90
2008,02,24,12,48,7.90
2008,02,24,12,49,7.90
2008,02,24,12,50,7.90
2008,02,24,12,51,7.90
2008,02,24,12,52,7.90
2008,02,24,12,53,7.90
2008,02,24,12,54,7.90
2008,02,24,12,55,7.90
2008,02,24,12,56,7.90
2008,02,24,12,57,7.90
2008,02,24,12,58,7.90
2008,02,24,12,59,7.90
2008,02,24,13,00,8.00
2008,02,24,13,01,8.00
2008,02,24,13,02,8.00
2008,02,24,13,03,8.00
2008,02,24,13,04,8.00
2008,02,24,13,05,8.00
2008,02,24,13,06,8.00
2008,02,24,13,07,8.00
2008,02,24,13,08,8.00
2008,02,24,13,09,8.00
2008,02,24,13,10,7.90
2008,02,24,13,11,7.90
2008,02,24,13,12,7.90
2008,02,24,13,13,7.90
2008,02,24,13,14,7.90
2008,02,24,13,15,7.90
2008,02,24,13,16,7.90
2008,02,24,13,17,7.90
2008,02,24,13,18,7.90
2008,02,24,13,19,7.90
2008,02,24,13,20,7.90
2008,02,24,13,22,7.90
2008,02,24,13,23,7.90
2008,02,24,13,24,7.90
2008,02,24,13,25,7.90
2008,02,24,13,26,7.90
2008,02,24,13,27,7.90
2008,02,24,13,28,7.90
2008,02,24,13,29,7.90
2008,02,24,13,30,7.90
2008,02,24,13,31,8.10
2008,02,24,13,32,8.10
2008,02,24,13,33,8.10
2008,02,24,13,34,8.10
2008,02,24,13,35,8.10
2008,02,24,13,36,8.10
2008,02,24,13,37,8.10
2008,02,24,13,38,8.10
2008,02,24,13,39,8.10
2008,02,24,13,40,7.90
2008,02,24,13,41,7.90
2008,02,24,13,42,7.90
2008,02,24,13,43,7.90
2008,02,24,13,45,7.90
2008,02,24,13,46,7.90
2008,02,24,13,47,7.90
2008,02,24,13,48,7.90
2008,02,24,13,49,7.90
2008,02,24,13,50,7.90
2008,02,24,13,51,7.90
2008,02,24,13,52,7.90
2008,02,24,13,53,7.90
2008,02,24,13,54,7.90
2008,02,24,13,55,7.90
2008,02,24,13,56,7.90
2008,02,24,13,57,7.90
2008,02,24,13,58,7.90
2008,02,24,13,59,7.90
2008,02,24,14,00,8.20
2008,02,24,14,01,8.20
2008,02,24,14,02,8.20
2008,02,24,14,03,8.20
2008,02,24,14,04,8.20
2008,02,24,14,05,8.20
2008,02,24,14,06,8.20
2008,02,24,14,07,8.20
2008,02,24,14,08,8.20
2008,02,24,14,09,8.30
2008,02,24,14,10,8.30
2008,02,24,14,11,8.30
2008,02,24,14,12,8.30
2008,02,24,14,13,8.30
2008,02,24,14,14,8.30
2008,02,24,14,15,8.30
2008,02,24,14,16,8.30
2008,02,24,14,17,8.30
2008,02,24,14,18,8.30
2008,02,24,14,19,8.30
2008,02,24,14,20,8.30
2008,02,24,14,21,8.30
2008,02,24,14,22,8.30
2008,02,24,14,23,8.30
2008,02,24,14,24,8.30
2008,02,24,14,25,8.30
2008,02,24,14,26,8.30
2008,02,24,14,27,8.30
2008,02,24,14,28,8.20
2008,02,24,14,29,8.20
2008,02,24,14,30,8.20
2008,02,24,14,31,8.20
2008,02,24,14,32,8.20
2008,02,24,14,33,8.20
2008,02,24,14,34,8.20
2008,02,24,14,35,8.20
2008,02,24,14,36,8.20
2008,02,24,14,37,8.10
2008,02,24,14,38,8.10
2008,02,24,14,39,8.10
2008,02,24,14,40,8.10
2008,02,24,14,41,8.10
2008,02,24,14,42,8.10
2008,02,24,14,43,8.10
2008,02,24,14,44,8.10
2008,02,24,14,45,8.10
2008,02,24,14,46,8.10
2008,02,24,14,47,8.10
2008,02,24,14,48,8.10
2008,02,24,14,49,8.10
2008,02,24,14,50,8.10
2008,02,24,14,51,8.10
2008,02,24,14,52,8.10
2008,02,24,14,53,8.10
2008,02,24,14,54,8.10
2008,02,24,14,55,8.10
2008,02,24,14,57,7.80
2008,02,24,14,58,7.80
2008,02,24,14,59,7.80
2008,02,24,15,00,7.80
2008,02,24,15,01,7.80
2008,02,24,15,02,7.80
2008,02,24,15,03,7.80
2008,02,24,15,04,7.80
2008,02,24,15,05,7.70
2008,02,24,15,06,7.70
2008,02,24,15,07,7.70
2008,02,24,15,08,7.70
2008,02,24,15,09,7.70
2008,02,24,15,10,7.70
2008,02,24,15,11,7.70
2008,02,24,15,12,7.70
2008,02,24,15,13,7.70
2008,02,24,15,14,7.70
2008,02,24,15,15,7.70
2008,02,24,15,16,7.70
2008,02,24,15,17,7.70
2008,02,24,15,18,7.70
2008,02,24,15,19,7.70
2008,02,24,15,20,7.70
2008,02,24,15,21,7.70
2008,02,24,15,22,7.70
2008,02,24,15,23,7.70
2008,02,24,15,24,7.90
2008,02,24,15,25,7.90
2008,02,24,15,26,7.90
2008,02,24,15,27,7.90
2008,02,24,15,28,7.90
2008,02,24,15,29,7.90
2008,02,24,15,30,7.90
2008,02,24,15,31,7.90
2008,02,24,15,32,7.90
2008,02,24,15,34,7.90
2008,02,24,15,35,7.90
2008,02,24,15,36,7.90
2008,02,24,15,37,7.90
2008,02,24,15,38,7.90
2008,02,24,15,39,7.90
2008,02,24,15,40,7.90
2008,02,24,15,42,7.90
2008,02,24,15,43,7.90
2008,02,24,15,44,7.90
2008,02,24,15,45,7.90
2008,02,24,15,46,7.90
2008,02,24,15,47,7.90
2008,02,24,15,49,7.90
2008,02,24,15,50,7.90
2008,02,24,15,51,7.90
2008,02,24,15,52,8.00
2008,02,24,15,53,8.00
2008,02,24,15,54,8.00
2008,02,24,15,55,8.00
2008,02,24,15,56,8.00
2008,02,24,15,57,8.00
2008,02,24,15,58,8.00
2008,02,24,15,59,8.00
2008,02,24,16,00,8.00
2008,02,24,16,01,7.70
2008,02,24,16,02,7.70
2008,02,24,16,03,7.70
2008,02,24,16,04,7.70
2008,02,24,16,05,7.70
2008,02,24,16,06,7.70
2008,02,24,16,07,7.70
2008,02,24,16,08,7.70
2008,02,24,16,09,7.70
2008,02,24,16,10,7.70
2008,02,24,16,11,7.70
2008,02,24,16,12,7.70
2008,02,24,16,13,7.70
2008,02,24,16,14,7.70
2008,02,24,16,15,7.70
2008,02,24,16,16,7.70
2008,02,24,16,17,7.70
2008,02,24,16,18,7.70
2008,02,24,16,19,7.70
2008,02,24,16,21,7.60
2008,02,24,16,22,7.60
2008,02,24,16,23,7.60
2008,02,24,16,24,7.60
2008,02,24,16,25,7.60
2008,02,24,16,26,7.60
2008,02,24,16,27,7.60
2008,02,24,16,28,7.60
2008,02,24,16,29,7.60
2008,02,24,16,30,7.60
2008,02,24,16,31,7.60
2008,02,24,16,32,7.60
2008,02,24,16,33,7.60
2008,02,24,16,34,7.60
2008,02,24,16,35,7.60
2008,02,24,16,36,7.60
2008,02,24,16,37,7.60
2008,02,24,16,38,7.60
2008,02,24,16,39,7.60
2008,02,24,16,40,7.60
2008,02,24,16,41,7.60
2008,02,24,16,42,7.60
2008,02,24,16,43,7.60
2008,02,24,16,44,7.60
2008,02,24,16,45,7.60
2008,02,24,16,46,7.60
2008,02,24,16,47,7.60
2008,02,24,16,48,7.60
2008,02,24,16,49,7.60
2008,02,24,16,50,7.60
2008,02,24,16,51,7.60
2008,02,24,16,52,7.60
2008,02,24,16,53,7.60
2008,02,24,16,54,7.60
2008,02,24,16,55,7.60
2008,02,24,16,56,7.60
2008,02,24,16,57,7.60
2008,02,24,16,58,7.60
2008,02,24,16,59,7.60
2008,02,24,17,00,7.60
2008,02,24,17,01,7.60
2008,02,24,17,02,7.60
2008,02,24,17,03,7.60
2008,02,24,17,04,7.60
2008,02,24,17,05,7.60
2008,02,24,17,06,7.60
2008,02,24,17,07,7.60
2008,02,24,17,08,7.60
2008,02,24,17,09,7.60
2008,02,24,17,10,7.60
2008,02,24,17,11,7.60
2008,02,24,17,12,7.60
2008,02,24,17,13,7.60
2008,02,24,17,14,7.60
2008,02,24,17,15,7.60
2008,02,24,17,16,7.60
2008,02,24,17,17,7.60
2008,02,24,17,18,7.60
2008,02,24,17,19,7.60
2008,02,24,17,20,7.60
2008,02,24,17,21,7.60
2008,02,24,17,22,7.60
2008,02,24,17,23,7.60
2008,02,24,17,24,7.60
2008,02,24,17,25,7.60
2008,02,24,17,26,7.60
2008,02,24,17,27,7.60
2008,02,24,17,28,7.60
2008,02,24,17,29,7.60
2008,02,24,17,30,7.60
2008,02,24,17,31,7.60
2008,02,24,17,32,7.60
2008,02,24,17,33,7.60
2008,02,24,17,34,7.60
2008,02,24,17,35,7.60
2008,02,24,17,36,7.60
2008,02,24,17,37,7.60
2008,02,24,17,38,7.60
2008,02,24,17,39,7.60
2008,02,24,17,40,7.60
2008,02,24,17,41,7.60
2008,02,24,17,42,7.60
2008,02,24,17,43,7.60
2008,02,24,17,44,7.60
2008,02,24,17,45,7.60
2008,02,24,17,46,7.60
2008,02,24,17,47,7.60
2008,02,24,17,48,7.60
2008,02,24,17,49,7.60
2008,02,24,17,50,7.60
2008,02,24,17,51,7.60
2008,02,24,17,52,7.60
2008,02,24,17,53,7.60
2008,02,24,17,54,7.60
2008,02,24,17,55,7.60
2008,02,24,17,56,7.60
2008,02,24,17,58,7.60
2008,02,24,17,59,7.60
2008,02,24,18,00,7.60
2008,02,24,18,01,7.60
2008,02,24,18,02,7.60
2008,02,24,18,03,7.60
2008,02,24,18,04,7.60
2008,02,24,18,05,7.60
2008,02,24,18,06,7.60
2008,02,24,18,07,7.60
2008,02,24,18,08,7.60
2008,02,24,18,09,7.60
2008,02,24,18,10,7.40
2008,02,24,18,11,7.40
2008,02,24,18,12,7.40
2008,02,24,18,13,7.40
2008,02,24,18,14,7.40
2008,02,24,18,15,7.40
2008,02,24,18,16,7.40
2008,02,24,18,17,7.40
2008,02,24,18,18,7.40
2008,02,24,18,19,7.50
2008,02,24,18,20,7.50
2008,02,24,18,21,7.50
2008,02,24,18,22,7.50
2008,02,24,18,23,7.50
2008,02,24,18,24,7.50
2008,02,24,18,25,7.50
2008,02,24,18,26,7.50
2008,02,24,18,27,7.50
2008,02,24,18,28,7.50
2008,02,24,18,29,7.50
2008,02,24,18,30,7.50
2008,02,24,18,31,7.50
2008,02,24,18,32,7.50
2008,02,24,18,34,7.50
2008,02,24,18,35,7.50
2008,02,24,18,36,7.50
2008,02,24,18,37,7.50
2008,02,24,18,38,7.40
2008,02,24,18,39,7.40
2008,02,24,18,40,7.40
2008,02,24,18,41,7.40
2008,02,24,18,42,7.40
2008,02,24,18,43,7.40
2008,02,24,18,44,7.40
2008,02,24,18,45,7.40
2008,02,24,18,46,7.40
2008,02,24,18,47,7.50
2008,02,24,18,48,7.50
2008,02,24,18,49,7.50
2008,02,24,18,50,7.50
2008,02,24,18,51,7.50
2008,02,24,18,52,7.50
2008,02,24,18,53,7.50
2008,02,24,18,54,7.50
2008,02,24,18,55,7.50
2008,02,24,18,56,7.50
2008,02,24,18,57,7.50
2008,02,24,18,58,7.50
2008,02,24,18,59,7.50
2008,02,24,19,00,7.50
2008,02,24,19,01,7.50
2008,02,24,19,02,7.50
2008,02,24,19,03,7.50
2008,02,24,19,04,7.50
2008,02,24,19,05,7.50
2008,02,24,19,06,7.50
2008,02,24,19,07,7.50
2008,02,24,19,08,7.50
2008,02,24,19,09,7.50
2008,02,24,19,10,7.50
2008,02,24,19,11,7.50
2008,02,24,19,12,7.50
2008,02,24,19,13,7.50
2008,02,24,19,14,7.50
2008,02,24,19,15,7.50
2008,02,24,19,16,7.50
2008,02,24,19,17,7.50
2008,02,24,19,18,7.50
2008,02,24,19,19,7.50
2008,02,24,19,20,7.50
2008,02,24,19,21,7.50
2008,02,24,19,22,7.50
2008,02,24,19,23,7.50
2008,02,24,19,24,7.50
2008,02,24,19,26,7.50
2008,02,24,19,27,7.50
2008,02,24,19,28,7.50
2008,02,24,19,29,7.50
2008,02,24,19,30,7.50
2008,02,24,19,31,7.50
2008,02,24,19,32,7.50
2008,02,24,19,34,7.50
2008,02,24,19,35,7.50
2008,02,24,19,36,7.50
2008,02,24,19,37,7.50
2008,02,24,19,38,7.50
2008,02,24,19,39,7.50
2008,02,24,19,40,7.50
2008,02,24,19,41,7.50
2008,02,24,19,42,7.50
2008,02,24,19,43,7.40
2008,02,24,19,44,7.40
2008,02,24,19,45,7.40
2008,02,24,19,46,7.40
2008,02,24,19,47,7.40
2008,02,24,19,48,7.40
2008,02,24,19,49,7.40
2008,02,24,19,50,7.40
2008,02,24,19,51,7.40
2008,02,24,19,52,7.40
2008,02,24,19,53,7.40
2008,02,24,19,54,7.40
2008,02,24,19,55,7.40
2008,02,24,19,57,7.40
2008,02,24,19,58,7.40
2008,02,24,19,59,7.40
2008,02,24,20,00,7.40
2008,02,24,20,01,7.40
2008,02,24,20,02,7.30
2008,02,24,20,03,7.30
2008,02,24,20,04,7.30
2008,02,24,20,05,7.30
2008,02,24,20,06,7.30
2008,02,24,20,07,7.30
2008,02,24,20,08,7.30
2008,02,24,20,09,7.30
2008,02,24,20,10,7.30
2008,02,24,20,11,7.20
2008,02,24,20,12,7.20
2008,02,24,20,13,7.20
2008,02,24,20,14,7.20
2008,02,24,20,15,7.20
2008,02,24,20,16,7.20
2008,02,24,20,17,7.20
2008,02,24,20,18,7.20
2008,02,24,20,19,7.20
2008,02,24,20,20,7.20
2008,02,24,20,21,7.20
2008,02,24,20,22,7.20
2008,02,24,20,23,7.20
2008,02,24,20,24,7.20
2008,02,24,20,25,7.20
2008,02,24,20,26,7.20
2008,02,24,20,27,7.20
2008,02,24,20,28,7.20
2008,02,24,20,29,7.20
2008,02,24,20,30,7.10
2008,02,24,20,31,7.10
2008,02,24,20,32,7.10
2008,02,24,20,33,7.10
2008,02,24,20,34,7.10
2008,02,24,20,35,7.10
2008,02,24,20,36,7.10
2008,02,24,20,37,7.10
2008,02,24,20,38,7.10
2008,02,24,20,39,7.20
2008,02,24,20,40,7.20
2008,02,24,20,41,7.20
2008,02,24,20,42,7.20
2008,02,24,20,43,7.20
2008,02,24,20,44,7.20
2008,02,24,20,45,7.20
2008,02,24,20,46,7.20
2008,02,24,20,47,7.20
2008,02,24,20,48,7.20
2008,02,24,20,49,7.20
2008,02,24,20,50,7.20
2008,02,24,20,51,7.20
2008,02,24,20,52,7.20
2008,02,24,20,53,7.20
2008,02,24,20,54,7.20
2008,02,24,20,55,7.20
2008,02,24,20,56,7.20
2008,02,24,20,57,7.20
2008,02,24,20,58,7.20
2008,02,24,20,59,7.20
2008,02,24,21,01,7.20
2008,02,24,21,02,7.20
2008,02,24,21,04,7.20
2008,02,24,21,05,7.20
2008,02,24,21,06,7.20
2008,02,24,21,07,7.20
2008,02,24,21,08,7.20
2008,02,24,21,09,7.20
2008,02,24,21,10,7.20
2008,02,24,21,11,7.20
2008,02,24,21,12,7.20
2008,02,24,21,13,7.20
2008,02,24,21,14,7.20
2008,02,24,21,15,7.20
2008,02,24,21,16,7.20
2008,02,24,21,17,7.20
2008,02,24,21,18,7.20
2008,02,24,21,19,7.20
2008,02,24,21,20,7.20
2008,02,24,21,21,7.20
2008,02,24,21,22,7.20
2008,02,24,21,23,7.20
2008,02,24,21,24,7.20
2008,02,24,21,25,7.20
2008,02,24,21,26,7.20
2008,02,24,21,27,7.20
2008,02,24,21,28,7.20
2008,02,24,21,29,7.20
2008,02,24,21,30,7.20
2008,02,24,21,31,7.20
2008,02,24,21,32,7.20
2008,02,24,21,33,7.20
2008,02,24,21,34,7.20
2008,02,24,21,35,7.10
2008,02,24,21,36,7.10
2008,02,24,21,37,7.10
2008,02,24,21,38,7.10
2008,02,24,21,39,7.10
2008,02,24,21,40,7.10
2008,02,24,21,41,7.10
2008,02,24,21,42,7.10
2008,02,24,21,43,7.10
2008,02,24,21,44,7.10
2008,02,24,21,45,7.10
2008,02,24,21,46,7.10
2008,02,24,21,47,7.10
2008,02,24,21,48,7.10
2008,02,24,21,49,7.10
2008,02,24,21,50,7.10
2008,02,24,21,51,7.10
2008,02,24,21,52,7.10
2008,02,24,21,53,7.10
2008,02,24,21,54,7.20
2008,02,24,21,55,7.20
2008,02,24,21,56,7.20
2008,02,24,21,57,7.20
2008,02,24,21,58,7.20
2008,02,24,21,59,7.20
2008,02,24,22,00,7.20
2008,02,24,22,01,7.20
2008,02,24,22,02,7.20
2008,02,24,22,03,7.20
2008,02,24,22,04,7.20
2008,02,24,22,05,7.20
2008,02,24,22,06,7.20
2008,02,24,22,07,7.20
2008,02,24,22,08,7.20
2008,02,24,22,09,7.20
2008,02,24,22,10,7.20
2008,02,24,22,11,7.20
2008,02,24,22,12,7.20
2008,02,24,22,13,7.20
2008,02,24,22,14,7.20
2008,02,24,22,15,7.20
2008,02,24,22,16,7.20
2008,02,24,22,17,7.20
2008,02,24,22,18,7.20
2008,02,24,22,19,7.20
2008,02,24,22,20,7.20
2008,02,24,22,21,7.20
2008,02,24,22,22,7.60
2008,02,24,22,23,7.60
2008,02,24,22,24,7.60
2008,02,24,22,25,7.60
2008,02,24,22,26,7.60
2008,02,24,22,27,7.60
2008,02,24,22,28,7.60
2008,02,24,22,29,7.60
2008,02,24,22,30,7.60
2008,02,24,22,31,7.80
2008,02,24,22,32,7.80
2008,02,24,22,33,7.80
2008,02,24,22,34,7.80
2008,02,24,22,35,7.80
2008,02,24,22,36,7.80
2008,02,24,22,37,7.80
2008,02,24,22,38,7.80
2008,02,24,22,39,7.80
2008,02,24,22,40,7.80
2008,02,24,22,41,7.80
2008,02,24,22,42,7.80
2008,02,24,22,43,7.80
2008,02,24,22,44,7.80
2008,02,24,22,45,7.80
2008,02,24,22,46,7.80
2008,02,24,22,47,7.80
2008,02,24,22,48,7.80
2008,02,24,22,49,7.80
2008,02,24,22,50,7.90
2008,02,24,22,51,7.90
2008,02,24,22,52,7.90
2008,02,24,22,53,7.90
2008,02,24,22,54,7.90
2008,02,24,22,55,7.90
2008,02,24,22,56,7.90
2008,02,24,22,57,7.90
2008,02,24,22,58,7.90
2008,02,24,22,59,7.80
2008,02,24,23,00,7.80
2008,02,24,23,01,7.80
2008,02,24,23,02,7.80
2008,02,24,23,03,7.80
2008,02,24,23,04,7.80
2008,02,24,23,05,7.80
2008,02,24,23,06,7.80
2008,02,24,23,07,7.80
2008,02,24,23,08,7.80
2008,02,24,23,09,7.80
2008,02,24,23,10,7.80
2008,02,24,23,11,7.80
2008,02,24,23,12,7.80
2008,02,24,23,13,7.80
2008,02,24,23,14,7.80
2008,02,24,23,15,7.80
2008,02,24,23,16,7.80
2008,02,24,23,17,7.80
2008,02,24,23,18,7.80
2008,02,24,23,19,7.70
2008,02,24,23,20,7.70
2008,02,24,23,21,7.70
2008,02,24,23,22,7.70
2008,02,24,23,23,7.70
2008,02,24,23,24,7.70
2008,02,24,23,25,7.70
2008,02,24,23,26,7.70
2008,02,24,23,27,7.20
2008,02,24,23,28,7.20
2008,02,24,23,29,7.20
2008,02,24,23,30,7.20
2008,02,24,23,31,7.20
2008,02,24,23,32,7.20
2008,02,24,23,33,7.20
2008,02,24,23,34,7.20
2008,02,24,23,35,7.20
2008,02,24,23,36,7.20
2008,02,24,23,37,7.20
2008,02,24,23,38,7.20
2008,02,24,23,39,7.20
2008,02,24,23,40,7.20
2008,02,24,23,41,7.20
2008,02,24,23,42,7.20
2008,02,24,23,43,7.20
2008,02,24,23,44,7.20
2008,02,24,23,45,7.20
2008,02,24,23,46,6.90
2008,02,24,23,47,6.90
2008,02,24,23,48,6.90
2008,02,24,23,49,6.90
2008,02,24,23,50,6.90
2008,02,24,23,51,6.90
2008,02,24,23,52,6.90
2008,02,24,23,53,6.90
2008,02,24,23,54,6.90
2008,02,24,23,55,7.20
2008,02,24,23,56,7.20
2008,02,24,23,57,7.20
2008,02,24,23,58,7.20
2008,02,24,23,59,7.20
